Terug naar catalogus

IABS R/B

ActiefMEO
NORAD 21877·ROCKET BODY·🇺🇸 United States

Gelanceerd Feb 11, 1992 vanaf Cape Canaveral Space Force Station

Loading…

Volgende Passages (komende 24 uur)

TLE

VersSource: Space-Track

Epoch: Sep 14, 2026, 11:17 UTC

1 21877U 92006C   26257.47073647 -.00000117  00000-0  00000+0 0  9991
2 21877   7.3544 320.9146 0659846 106.3234 260.9644  1.10786938 28860

Volg IABS R/B in realtime met AllMySat

Download on the App Store